STARLINK-37256, 68569

Orbit data source: Space-Track

STARLINK-37256, 68569 is a payload satellite owned by SpaceX/Seattle (US) in LEO that was launched on Thu, 02 Apr 2026 UTC via an FALCON 9 launch vehicle from the Air Force Eastern Test Range (AFETR). Payload-class satellites include a variety of spacecraft equipped with specific instruments for various scientific and technological missions. These include communications satellites like Starlink; space stations such as the ISS; scientific satellites like the Hubble; Earth observation satellites from companies like Planet Labs, Umbra, and HawkEye 360; GPS; miniature CubeSats for education and research; and military/defense satellites.

Loading next visibility...
Identifier
68569, 2026-070AD
Orbit
LEO
Country
Flag of USUS
Related business
Manufacturer
SpaceX/Seattle
Mission
Operational Commercial Communications
Bus & Motor
STARLINK V2MO, Unknown motor
Mass
575 kg wet, ~530 kg dry
Launch date (UTC)
2026-04-02 (5 months ago)
Launch vehicle
FALCON 9
Launch site
Air Force Eastern Test Range (AFETR)
Object type
Payload
Rocket body
Debris
Shape & HBR
Box + 1 Pan, 17.7 m
Radar Cross Section
41.120 m², Large (>1 m²)

Expand to show TLE details & history
Last TLE update: 23 hours ago

TLE from 23 hours ago
0 STARLINK-37256
1 68569U 26070AD  26246.44227140  .00015030  00000-0  45498-3 0  9995
2 68569  53.1577 253.1062 0000947  95.8364 264.2747 15.34405301 23821
Epoch: 2026-09-03T10:36Z
TLE epoch observation values (Epoch: 2026-09-03T10:36:52.248Z)
Latitude
-0.00001°
Longitude
111.30811°
Altitude
463.653 km
Speed
7.636 km/s
True Right ascension
16h 52m 25s
True Declination
0° 00' 00"
Sunlit
Object was in daylight at epoch
Visualization orbit readout
Latitude
Unknown
Longitude
Unknown
Altitude
Unknown
Speed
Unknown
Apparent Right ascension
Unknown
Apparent Declination
Unknown
Sunlit
N/A
Visualization observer readout
Local Sidereal Time
01:36:12
Azimuth
Unknown
Elevation
Unknown
Doppler factor
Unknown
Orbital elements
Apogee altitude
463.593 km
Perigee altitude
462.297 km
Semi-major axis
6,841.082 km
Eccentricity
0.00009
Inclination
53.1577°
RAAN
253.1062°
Arg. of periapsis
95.8364°
True anomaly
264.2639°
Mean anomaly
264.2747°
Eccentric anomaly
264.2693°
Mean motion
3.8358 °/min
Orbital period
93.85 mins
BSTAR
0.00045498
Loading maneuver chart data...
Computing Atmospheric mass density...
Loading historical data...
Loading historical data...
Loading historical data...
Loading historical data...
Loading historical data...
Loading historical data...
Loading historical data...

Documentation

Showing up to 5 results
|